Year,Month,Day,Hour,Minute,Value (Times are PST for temperature in C)
2010,08,16,00,00,22.30
2010,08,16,00,01,22.30
2010,08,16,00,02,22.30
2010,08,16,00,03,22.30
2010,08,16,00,04,22.30
2010,08,16,00,05,22.20
2010,08,16,00,06,22.20
2010,08,16,00,07,22.10
2010,08,16,00,08,22.10
2010,08,16,00,09,22.10
2010,08,16,00,10,22.10
2010,08,16,00,11,22.00
2010,08,16,00,12,22.00
2010,08,16,00,13,22.00
2010,08,16,00,14,21.90
2010,08,16,00,15,21.90
2010,08,16,00,16,21.90
2010,08,16,00,17,21.80
2010,08,16,00,18,21.80
2010,08,16,00,19,21.80
2010,08,16,00,20,21.80
2010,08,16,00,21,21.80
2010,08,16,00,22,21.70
2010,08,16,00,23,21.70
2010,08,16,00,24,21.70
2010,08,16,00,25,21.70
2010,08,16,00,26,21.60
2010,08,16,00,27,21.60
2010,08,16,00,28,21.70
2010,08,16,00,29,21.70
2010,08,16,00,30,21.60
2010,08,16,00,31,21.60
2010,08,16,00,32,21.60
2010,08,16,00,33,21.60
2010,08,16,00,34,21.60
2010,08,16,00,35,21.60
2010,08,16,00,36,21.60
2010,08,16,00,37,21.60
2010,08,16,00,38,21.60
2010,08,16,00,39,21.60
2010,08,16,00,40,21.60
2010,08,16,00,41,21.60
2010,08,16,00,42,21.60
2010,08,16,00,43,21.60
2010,08,16,00,44,21.60
2010,08,16,00,45,21.60
2010,08,16,00,46,21.60
2010,08,16,00,47,21.60
2010,08,16,00,48,21.60
2010,08,16,00,49,21.60
2010,08,16,00,50,21.60
2010,08,16,00,51,21.60
2010,08,16,00,52,21.60
2010,08,16,00,53,21.60
2010,08,16,00,54,21.60
2010,08,16,00,55,21.60
2010,08,16,00,56,21.50
2010,08,16,00,57,21.40
2010,08,16,00,58,21.40
2010,08,16,00,59,21.40
2010,08,16,01,00,21.40
2010,08,16,01,01,21.40
2010,08,16,01,02,21.40
2010,08,16,01,03,21.40
2010,08,16,01,04,21.40
2010,08,16,01,05,21.40
2010,08,16,01,06,21.40
2010,08,16,01,07,21.40
2010,08,16,01,08,21.40
2010,08,16,01,09,21.40
2010,08,16,01,10,21.40
2010,08,16,01,11,21.40
2010,08,16,01,12,21.40
2010,08,16,01,13,21.30
2010,08,16,01,14,21.30
2010,08,16,01,15,21.30
2010,08,16,01,16,21.30
2010,08,16,01,17,21.30
2010,08,16,01,18,21.30
2010,08,16,01,19,21.30
2010,08,16,01,20,21.30
2010,08,16,01,21,21.30
2010,08,16,01,22,21.30
2010,08,16,01,23,21.30
2010,08,16,01,24,21.40
2010,08,16,01,25,21.40
2010,08,16,01,26,21.50
2010,08,16,01,27,21.50
2010,08,16,01,28,21.40
2010,08,16,01,29,21.40
2010,08,16,01,30,21.40
2010,08,16,01,31,21.50
2010,08,16,01,32,21.60
2010,08,16,01,33,21.60
2010,08,16,01,34,21.60
2010,08,16,01,35,21.60
2010,08,16,01,36,21.60
2010,08,16,01,37,21.60
2010,08,16,01,38,21.40
2010,08,16,01,39,21.40
2010,08,16,01,40,21.40
2010,08,16,01,41,21.40
2010,08,16,01,42,21.30
2010,08,16,01,43,21.30
2010,08,16,01,44,21.30
2010,08,16,01,45,21.30
2010,08,16,01,46,21.30
2010,08,16,01,47,21.30
2010,08,16,01,48,21.40
2010,08,16,01,49,21.40
2010,08,16,01,50,21.40
2010,08,16,01,51,21.60
2010,08,16,01,52,21.50
2010,08,16,01,53,21.60
2010,08,16,01,54,21.50
2010,08,16,01,55,21.40
2010,08,16,01,56,21.40
2010,08,16,01,57,21.40
2010,08,16,01,58,21.50
2010,08,16,01,59,21.60
2010,08,16,02,00,21.60
2010,08,16,02,01,21.60
2010,08,16,02,02,21.60
2010,08,16,02,03,21.60
2010,08,16,02,04,21.60
2010,08,16,02,05,21.40
2010,08,16,02,06,21.50
2010,08,16,02,07,21.60
2010,08,16,02,08,21.60
2010,08,16,02,09,21.60
2010,08,16,02,10,21.60
2010,08,16,02,11,21.60
2010,08,16,02,12,21.60
2010,08,16,02,13,21.60
2010,08,16,02,14,21.50
2010,08,16,02,15,21.40
2010,08,16,02,16,21.40
2010,08,16,02,17,21.40
2010,08,16,02,18,21.40
2010,08,16,02,19,21.50
2010,08,16,02,20,21.60
2010,08,16,02,21,21.60
2010,08,16,02,22,21.60
2010,08,16,02,23,21.60
2010,08,16,02,24,21.60
2010,08,16,02,25,21.60
2010,08,16,02,26,21.70
2010,08,16,02,27,21.70
2010,08,16,02,28,21.80
2010,08,16,02,29,21.80
2010,08,16,02,30,21.90
2010,08,16,02,31,21.90
2010,08,16,02,32,21.90
2010,08,16,02,33,22.00
2010,08,16,02,34,22.00
2010,08,16,02,35,21.90
2010,08,16,02,36,21.90
2010,08,16,02,37,21.90
2010,08,16,02,38,21.90
2010,08,16,02,39,22.00
2010,08,16,02,40,22.00
2010,08,16,02,41,22.00
2010,08,16,02,42,22.10
2010,08,16,02,43,22.10
2010,08,16,02,44,22.10
2010,08,16,02,45,22.10
2010,08,16,02,46,22.10
2010,08,16,02,47,22.10
2010,08,16,02,48,22.00
2010,08,16,02,49,22.00
2010,08,16,02,50,22.00
2010,08,16,02,51,22.00
2010,08,16,02,52,22.00
2010,08,16,02,53,22.00
2010,08,16,02,54,22.00
2010,08,16,02,55,22.00
2010,08,16,02,56,22.00
2010,08,16,02,57,22.00
2010,08,16,02,58,22.00
2010,08,16,02,59,21.90
2010,08,16,03,00,21.90
2010,08,16,03,01,21.80
2010,08,16,03,02,21.70
2010,08,16,03,03,21.60
2010,08,16,03,04,21.60
2010,08,16,03,05,21.50
2010,08,16,03,06,21.40
2010,08,16,03,07,21.40
2010,08,16,03,08,21.50
2010,08,16,03,09,21.40
2010,08,16,03,10,21.40
2010,08,16,03,11,21.50
2010,08,16,03,12,21.60
2010,08,16,03,13,21.70
2010,08,16,03,14,21.80
2010,08,16,03,15,21.90
2010,08,16,03,16,22.00
2010,08,16,03,17,22.00
2010,08,16,03,18,22.10
2010,08,16,03,19,22.00
2010,08,16,03,20,22.00
2010,08,16,03,21,22.00
2010,08,16,03,22,22.00
2010,08,16,03,23,22.00
2010,08,16,03,24,21.90
2010,08,16,03,25,21.90
2010,08,16,03,26,21.80
2010,08,16,03,27,21.80
2010,08,16,03,28,21.80
2010,08,16,03,29,21.70
2010,08,16,03,30,21.70
2010,08,16,03,31,21.60
2010,08,16,03,32,21.60
2010,08,16,03,33,21.60
2010,08,16,03,34,21.40
2010,08,16,03,35,21.40
2010,08,16,03,36,21.30
2010,08,16,03,37,21.30
2010,08,16,03,38,21.30
2010,08,16,03,39,21.30
2010,08,16,03,40,21.30
2010,08,16,03,41,21.30
2010,08,16,03,42,21.20
2010,08,16,03,43,21.20
2010,08,16,03,44,21.10
2010,08,16,03,45,21.10
2010,08,16,03,46,21.10
2010,08,16,03,47,21.10
2010,08,16,03,48,21.10
2010,08,16,03,49,21.20
2010,08,16,03,50,21.20
2010,08,16,03,51,21.20
2010,08,16,03,52,21.20
2010,08,16,03,53,21.20
2010,08,16,03,54,21.10
2010,08,16,03,55,21.10
2010,08,16,03,56,21.10
2010,08,16,03,57,21.10
2010,08,16,03,58,21.10
2010,08,16,03,59,21.10
2010,08,16,04,00,21.00
2010,08,16,04,01,21.00
2010,08,16,04,02,20.90
2010,08,16,04,03,20.90
2010,08,16,04,04,20.80
2010,08,16,04,05,20.70
2010,08,16,04,06,20.60
2010,08,16,04,07,20.50
2010,08,16,04,08,20.40
2010,08,16,04,09,20.30
2010,08,16,04,10,20.20
2010,08,16,04,11,20.20
2010,08,16,04,12,20.10
2010,08,16,04,13,20.10
2010,08,16,04,14,20.10
2010,08,16,04,15,20.10
2010,08,16,04,16,20.10
2010,08,16,04,17,20.10
2010,08,16,04,18,20.10
2010,08,16,04,19,20.10
2010,08,16,04,20,20.10
2010,08,16,04,21,20.10
2010,08,16,04,22,20.10
2010,08,16,04,23,20.10
2010,08,16,04,24,20.00
2010,08,16,04,25,19.90
2010,08,16,04,26,20.00
2010,08,16,04,27,20.00
2010,08,16,04,28,19.90
2010,08,16,04,29,20.00
2010,08,16,04,30,20.10
2010,08,16,04,31,20.10
2010,08,16,04,32,20.10
2010,08,16,04,33,20.10
2010,08,16,04,34,20.10
2010,08,16,04,35,20.10
2010,08,16,04,36,19.90
2010,08,16,04,37,19.90
2010,08,16,04,38,19.90
2010,08,16,04,39,19.90
2010,08,16,04,40,19.90
2010,08,16,04,41,19.90
2010,08,16,04,42,19.90
2010,08,16,04,43,19.90
2010,08,16,04,44,19.90
2010,08,16,04,45,19.80
2010,08,16,04,46,19.80
2010,08,16,04,47,19.80
2010,08,16,04,48,19.80
2010,08,16,04,49,19.80
2010,08,16,04,50,19.70
2010,08,16,04,51,19.70
2010,08,16,04,52,19.70
2010,08,16,04,53,19.60
2010,08,16,04,54,19.60
2010,08,16,04,55,19.60
2010,08,16,04,56,19.60
2010,08,16,04,57,19.50
2010,08,16,04,58,19.50
2010,08,16,04,59,19.50
2010,08,16,05,00,19.40
2010,08,16,05,01,19.40
2010,08,16,05,02,19.40
2010,08,16,05,03,19.40
2010,08,16,05,04,19.30
2010,08,16,05,05,19.30
2010,08,16,05,06,19.20
2010,08,16,05,07,19.10
2010,08,16,05,08,19.10
2010,08,16,05,09,19.10
2010,08,16,05,10,19.00
2010,08,16,05,11,18.90
2010,08,16,05,12,18.90
2010,08,16,05,13,18.90
2010,08,16,05,14,18.80
2010,08,16,05,15,18.80
2010,08,16,05,16,18.80
2010,08,16,05,17,18.80
2010,08,16,05,18,18.80
2010,08,16,05,19,18.70
2010,08,16,05,20,18.80
2010,08,16,05,21,18.80
2010,08,16,05,22,18.80
2010,08,16,05,23,18.80
2010,08,16,05,24,18.80
2010,08,16,05,25,18.80
2010,08,16,05,26,18.70
2010,08,16,05,27,18.70
2010,08,16,05,28,18.70
2010,08,16,05,29,18.60
2010,08,16,05,30,18.60
2010,08,16,05,31,18.50
2010,08,16,05,32,18.50
2010,08,16,05,33,18.40
2010,08,16,05,34,18.40
2010,08,16,05,35,18.30
2010,08,16,05,36,18.30
2010,08,16,05,37,18.30
2010,08,16,05,38,18.20
2010,08,16,05,39,18.20
2010,08,16,05,40,18.20
2010,08,16,05,41,18.20
2010,08,16,05,42,18.20
2010,08,16,05,43,18.20
2010,08,16,05,44,18.20
2010,08,16,05,45,18.20
2010,08,16,05,46,18.20
2010,08,16,05,47,18.20
2010,08,16,05,48,18.20
2010,08,16,05,49,18.20
2010,08,16,05,50,18.20
2010,08,16,05,51,18.20
2010,08,16,05,52,18.20
2010,08,16,05,53,18.20
2010,08,16,05,54,18.20
2010,08,16,05,55,18.20
2010,08,16,05,56,18.20
2010,08,16,05,57,18.20
2010,08,16,05,58,18.10
2010,08,16,05,59,18.10
2010,08,16,06,00,18.10
2010,08,16,06,01,18.10
2010,08,16,06,02,18.00
2010,08,16,06,03,17.90
2010,08,16,06,04,17.90
2010,08,16,06,05,17.90
2010,08,16,06,06,17.90
2010,08,16,06,07,17.90
2010,08,16,06,08,17.90
2010,08,16,06,09,17.80
2010,08,16,06,10,17.80
2010,08,16,06,11,17.80
2010,08,16,06,12,17.80
2010,08,16,06,13,17.70
2010,08,16,06,14,17.70
2010,08,16,06,15,17.70
2010,08,16,06,16,17.70
2010,08,16,06,17,17.70
2010,08,16,06,18,17.70
2010,08,16,06,19,17.70
2010,08,16,06,20,17.70
2010,08,16,06,21,17.80
2010,08,16,06,22,17.80
2010,08,16,06,23,17.80
2010,08,16,06,24,17.80
2010,08,16,06,25,17.80
2010,08,16,06,26,17.80
2010,08,16,06,27,17.80
2010,08,16,06,28,17.80
2010,08,16,06,29,17.80
2010,08,16,06,30,17.80
2010,08,16,06,31,17.80
2010,08,16,06,32,17.80
2010,08,16,06,33,17.80
2010,08,16,06,34,17.80
2010,08,16,06,35,17.80
2010,08,16,06,36,17.70
2010,08,16,06,37,17.70
2010,08,16,06,38,17.70
2010,08,16,06,39,17.70
2010,08,16,06,40,17.70
2010,08,16,06,41,17.70
2010,08,16,06,42,17.70
2010,08,16,06,43,17.70
2010,08,16,06,44,17.80
2010,08,16,06,45,17.80
2010,08,16,06,46,17.80
2010,08,16,06,47,17.80
2010,08,16,06,48,17.80
2010,08,16,06,49,17.80
2010,08,16,06,50,17.80
2010,08,16,06,51,17.90
2010,08,16,06,52,17.90
2010,08,16,06,53,17.90
2010,08,16,06,54,17.90
2010,08,16,06,55,17.90
2010,08,16,06,56,17.90
2010,08,16,06,57,17.90
2010,08,16,06,58,17.90
2010,08,16,06,59,17.90
2010,08,16,07,00,17.90
2010,08,16,07,01,17.90
2010,08,16,07,02,17.90
2010,08,16,07,03,17.90
2010,08,16,07,04,18.00
2010,08,16,07,05,18.10
2010,08,16,07,06,18.10
2010,08,16,07,07,18.10
2010,08,16,07,08,18.10
2010,08,16,07,09,18.10
2010,08,16,07,10,18.10
2010,08,16,07,11,18.10
2010,08,16,07,12,18.10
2010,08,16,07,13,18.10
2010,08,16,07,14,18.20
2010,08,16,07,15,18.20
2010,08,16,07,16,18.20
2010,08,16,07,17,18.20
2010,08,16,07,18,18.30
2010,08,16,07,19,18.30
2010,08,16,07,20,18.40
2010,08,16,07,21,18.40
2010,08,16,07,22,18.40
2010,08,16,07,23,18.50
2010,08,16,07,24,18.50
2010,08,16,07,25,18.60
2010,08,16,07,26,18.60
2010,08,16,07,27,18.70
2010,08,16,07,28,18.70
2010,08,16,07,29,18.80
2010,08,16,07,30,18.80
2010,08,16,07,31,18.90
2010,08,16,07,32,18.90
2010,08,16,07,33,18.90
2010,08,16,07,34,19.00
2010,08,16,07,35,19.10
2010,08,16,07,36,19.10
2010,08,16,07,37,19.10
2010,08,16,07,38,19.20
2010,08,16,07,39,19.30
2010,08,16,07,40,19.30
2010,08,16,07,41,19.40
2010,08,16,07,42,19.50
2010,08,16,07,43,19.60
2010,08,16,07,44,19.60
2010,08,16,07,45,19.70
2010,08,16,07,46,19.80
2010,08,16,07,47,19.90
2010,08,16,07,48,19.90
2010,08,16,07,49,19.90
2010,08,16,07,50,20.00
2010,08,16,07,51,20.10
2010,08,16,07,52,20.20
2010,08,16,07,53,20.20
2010,08,16,07,54,20.30
2010,08,16,07,55,20.30
2010,08,16,07,56,20.40
2010,08,16,07,57,20.40
2010,08,16,07,58,20.50
2010,08,16,07,59,20.50
2010,08,16,08,00,20.50
2010,08,16,08,01,20.50
2010,08,16,08,02,20.50
2010,08,16,08,03,20.60
2010,08,16,08,04,20.60
2010,08,16,08,05,20.60
2010,08,16,08,06,20.60
2010,08,16,08,07,20.60
2010,08,16,08,08,20.70
2010,08,16,08,09,20.70
2010,08,16,08,10,20.70
2010,08,16,08,11,20.80
2010,08,16,08,12,20.80
2010,08,16,08,13,20.90
2010,08,16,08,14,21.00
2010,08,16,08,15,21.00
2010,08,16,08,16,21.10
2010,08,16,08,17,21.10
2010,08,16,08,18,21.20
2010,08,16,08,19,21.30
2010,08,16,08,20,21.30
2010,08,16,08,21,21.30
2010,08,16,08,22,21.40
2010,08,16,08,23,21.50
2010,08,16,08,24,21.60
2010,08,16,08,25,21.60
2010,08,16,08,26,21.70
2010,08,16,08,27,21.80
2010,08,16,08,28,21.80
2010,08,16,08,29,21.90
2010,08,16,08,30,22.00
2010,08,16,08,31,22.10
2010,08,16,08,32,22.20
2010,08,16,08,33,22.30
2010,08,16,08,34,22.30
2010,08,16,08,35,22.40
2010,08,16,08,36,22.50
2010,08,16,08,37,22.60
2010,08,16,08,38,22.60
2010,08,16,08,39,22.70
2010,08,16,08,40,22.80
2010,08,16,08,41,22.90
2010,08,16,08,42,22.90
2010,08,16,08,43,22.90
2010,08,16,08,44,23.00
2010,08,16,08,45,23.10
2010,08,16,08,46,23.20
2010,08,16,08,47,23.30
2010,08,16,08,48,23.30
2010,08,16,08,49,23.30
2010,08,16,08,50,23.30
2010,08,16,08,51,23.30
2010,08,16,08,52,23.30
2010,08,16,08,53,23.30
2010,08,16,08,54,23.20
2010,08,16,08,55,23.10
2010,08,16,08,56,23.00
2010,08,16,08,57,22.90
2010,08,16,08,58,22.90
2010,08,16,08,59,22.90
2010,08,16,09,00,22.90
2010,08,16,09,01,22.90
2010,08,16,09,02,22.90
2010,08,16,09,03,23.10
2010,08,16,09,04,23.10
2010,08,16,09,05,23.20
2010,08,16,09,06,23.30
2010,08,16,09,07,23.30
2010,08,16,09,08,23.30
2010,08,16,09,09,23.30
2010,08,16,09,10,23.30
2010,08,16,09,11,23.30
2010,08,16,09,12,23.30
2010,08,16,09,13,23.40
2010,08,16,09,14,23.40
2010,08,16,09,15,23.40
2010,08,16,09,16,23.50
2010,08,16,09,17,23.60
2010,08,16,09,18,23.70
2010,08,16,09,19,23.70
2010,08,16,09,20,23.90
2010,08,16,09,21,24.00
2010,08,16,09,22,24.10
2010,08,16,09,23,24.20
2010,08,16,09,24,24.30
2010,08,16,09,25,24.40
2010,08,16,09,26,24.40
2010,08,16,09,27,24.50
2010,08,16,09,28,24.50
2010,08,16,09,29,24.50
2010,08,16,09,30,24.50
2010,08,16,09,31,24.50
2010,08,16,09,32,24.50
2010,08,16,09,33,24.60
2010,08,16,09,34,24.60
2010,08,16,09,35,24.60
2010,08,16,09,36,24.70
2010,08,16,09,37,24.70
2010,08,16,09,38,24.80
2010,08,16,09,39,24.80
2010,08,16,09,40,24.80
2010,08,16,09,41,24.70
2010,08,16,09,42,24.60
2010,08,16,09,43,24.50
2010,08,16,09,44,24.40
2010,08,16,09,45,24.20
2010,08,16,09,46,24.20
2010,08,16,09,47,24.10
2010,08,16,09,48,24.10
2010,08,16,09,49,24.10
2010,08,16,09,50,24.10
2010,08,16,09,51,24.10
2010,08,16,09,52,24.20
2010,08,16,09,53,24.20
2010,08,16,09,54,24.30
2010,08,16,09,55,24.40
2010,08,16,09,56,24.50
2010,08,16,09,57,24.70
2010,08,16,09,58,24.80
2010,08,16,09,59,24.80
2010,08,16,10,00,24.80
2010,08,16,10,01,24.90
2010,08,16,10,02,24.90
2010,08,16,10,03,24.90
2010,08,16,10,04,24.90
2010,08,16,10,05,24.90
2010,08,16,10,06,24.90
2010,08,16,10,07,24.90
2010,08,16,10,08,24.90
2010,08,16,10,09,24.90
2010,08,16,10,10,24.80
2010,08,16,10,11,24.80
2010,08,16,10,12,24.90
2010,08,16,10,13,24.90
2010,08,16,10,14,25.00
2010,08,16,10,15,25.10
2010,08,16,10,16,25.10
2010,08,16,10,17,25.20
2010,08,16,10,18,25.20
2010,08,16,10,19,25.20
2010,08,16,10,20,25.30
2010,08,16,10,21,25.30
2010,08,16,10,22,25.40
2010,08,16,10,23,25.50
2010,08,16,10,24,25.60
2010,08,16,10,25,25.60
2010,08,16,10,26,25.70
2010,08,16,10,27,25.70
2010,08,16,10,28,25.70
2010,08,16,10,29,25.70
2010,08,16,10,30,25.70
2010,08,16,10,31,25.70
2010,08,16,10,32,25.70
2010,08,16,10,33,25.50
2010,08,16,10,34,25.40
2010,08,16,10,35,25.30
2010,08,16,10,36,25.30
2010,08,16,10,37,25.30
2010,08,16,10,38,25.30
2010,08,16,10,39,25.40
2010,08,16,10,40,25.40
2010,08,16,10,41,25.30
2010,08,16,10,42,25.30
2010,08,16,10,43,25.40
2010,08,16,10,44,25.40
2010,08,16,10,45,25.40
2010,08,16,10,46,25.40
2010,08,16,10,47,25.40
2010,08,16,10,48,25.20
2010,08,16,10,49,25.10
2010,08,16,10,50,25.10
2010,08,16,10,51,25.00
2010,08,16,10,52,25.00
2010,08,16,10,53,25.00
2010,08,16,10,54,25.00
2010,08,16,10,55,25.10
2010,08,16,10,56,25.10
2010,08,16,10,57,25.20
2010,08,16,10,58,25.30
2010,08,16,10,59,25.30
2010,08,16,11,00,25.40
2010,08,16,11,01,25.40
2010,08,16,11,02,25.40
2010,08,16,11,03,25.40
2010,08,16,11,04,25.30
2010,08,16,11,05,25.40
2010,08,16,11,06,25.40
2010,08,16,11,07,25.40
2010,08,16,11,08,25.30
2010,08,16,11,09,25.30
2010,08,16,11,10,25.20
2010,08,16,11,11,25.20
2010,08,16,11,12,25.20
2010,08,16,11,13,25.10
2010,08,16,11,14,25.10
2010,08,16,11,15,25.10
2010,08,16,11,16,25.20
2010,08,16,11,17,25.20
2010,08,16,11,18,25.20
2010,08,16,11,19,25.40
2010,08,16,11,20,25.50
2010,08,16,11,21,25.50
2010,08,16,11,22,25.60
2010,08,16,11,23,25.70
2010,08,16,11,24,25.80
2010,08,16,11,25,25.80
2010,08,16,11,26,25.80
2010,08,16,11,27,25.90
2010,08,16,11,28,25.90
2010,08,16,11,29,26.00
2010,08,16,11,30,26.00
2010,08,16,11,31,26.00
2010,08,16,11,32,26.00
2010,08,16,11,33,26.00
2010,08,16,11,34,26.00
2010,08,16,11,35,25.90
2010,08,16,11,36,25.90
2010,08,16,11,37,25.90
2010,08,16,11,38,25.80
2010,08,16,11,39,25.80
2010,08,16,11,40,25.70
2010,08,16,11,41,25.60
2010,08,16,11,42,25.60
2010,08,16,11,43,25.60
2010,08,16,11,44,25.70
2010,08,16,11,45,25.70
2010,08,16,11,46,25.70
2010,08,16,11,47,25.70
2010,08,16,11,48,25.70
2010,08,16,11,49,25.60
2010,08,16,11,50,25.60
2010,08,16,11,51,25.70
2010,08,16,11,52,25.70
2010,08,16,11,53,25.70
2010,08,16,11,54,25.70
2010,08,16,11,55,25.70
2010,08,16,11,56,25.80
2010,08,16,11,57,25.80
2010,08,16,11,58,25.80
2010,08,16,11,59,25.80
2010,08,16,12,00,25.90
2010,08,16,12,01,25.90
2010,08,16,12,02,25.90
2010,08,16,12,03,25.90
2010,08,16,12,04,25.90
2010,08,16,12,05,25.80
2010,08,16,12,06,25.70
2010,08,16,12,07,25.60
2010,08,16,12,08,25.60
2010,08,16,12,09,25.60
2010,08,16,12,10,25.60
2010,08,16,12,11,25.50
2010,08,16,12,12,25.60
2010,08,16,12,13,25.70
2010,08,16,12,14,25.80
2010,08,16,12,15,25.90
2010,08,16,12,16,26.00
2010,08,16,12,17,26.10
2010,08,16,12,18,26.20
2010,08,16,12,19,26.30
2010,08,16,12,20,26.30
2010,08,16,12,21,26.40
2010,08,16,12,22,26.50
2010,08,16,12,23,26.60
2010,08,16,12,24,26.50
2010,08,16,12,25,26.40
2010,08,16,12,26,26.20
2010,08,16,12,27,26.20
2010,08,16,12,28,26.30
2010,08,16,12,29,26.30
2010,08,16,12,30,26.40
2010,08,16,12,31,26.50
2010,08,16,12,32,26.60
2010,08,16,12,33,26.60
2010,08,16,12,34,26.60
2010,08,16,12,35,26.60
2010,08,16,12,36,26.60
2010,08,16,12,37,26.60
2010,08,16,12,38,26.60
2010,08,16,12,39,26.60
2010,08,16,12,40,26.60
2010,08,16,12,41,26.60
2010,08,16,12,42,26.40
2010,08,16,12,43,26.40
2010,08,16,12,44,26.30
2010,08,16,12,45,26.20
2010,08,16,12,46,26.10
2010,08,16,12,47,26.00
2010,08,16,12,48,26.00
2010,08,16,12,49,25.90
2010,08,16,12,50,25.90
2010,08,16,12,51,25.80
2010,08,16,12,52,25.80
2010,08,16,12,53,25.80
2010,08,16,12,54,25.80
2010,08,16,12,55,25.80
2010,08,16,12,56,25.90
2010,08,16,12,57,25.90
2010,08,16,12,58,25.90
2010,08,16,12,59,25.90
2010,08,16,13,00,25.90
2010,08,16,13,01,25.80
2010,08,16,13,02,25.80
2010,08,16,13,03,25.80
2010,08,16,13,04,25.90
2010,08,16,13,05,25.90
2010,08,16,13,06,25.90
2010,08,16,13,07,25.90
2010,08,16,13,08,25.90
2010,08,16,13,09,26.00
2010,08,16,13,10,26.00
2010,08,16,13,11,26.10
2010,08,16,13,12,26.10
2010,08,16,13,13,26.10
2010,08,16,13,14,26.20
2010,08,16,13,15,26.30
2010,08,16,13,16,26.30
2010,08,16,13,17,26.30
2010,08,16,13,18,26.30
2010,08,16,13,19,26.30
2010,08,16,13,20,26.40
2010,08,16,13,21,26.50
2010,08,16,13,22,26.60
2010,08,16,13,23,26.60
2010,08,16,13,24,26.70
2010,08,16,13,25,26.70
2010,08,16,13,26,26.70
2010,08,16,13,27,26.70
2010,08,16,13,28,26.70
2010,08,16,13,29,26.90
2010,08,16,13,30,27.00
2010,08,16,13,31,27.10
2010,08,16,13,32,27.30
2010,08,16,13,33,27.50
2010,08,16,13,34,27.70
2010,08,16,13,35,27.90
2010,08,16,13,36,28.00
2010,08,16,13,37,28.20
2010,08,16,13,38,28.30
2010,08,16,13,39,28.40
2010,08,16,13,40,28.50
2010,08,16,13,41,28.70
2010,08,16,13,42,28.80
2010,08,16,13,43,28.90
2010,08,16,13,44,28.90
2010,08,16,13,45,28.90
2010,08,16,13,46,28.90
2010,08,16,13,47,28.90
2010,08,16,13,48,28.90
2010,08,16,13,49,28.90
2010,08,16,13,50,28.90
2010,08,16,13,51,28.90
2010,08,16,13,52,28.90
2010,08,16,13,53,28.90
2010,08,16,13,54,28.90
2010,08,16,13,55,28.90
2010,08,16,13,56,28.90
2010,08,16,13,57,28.90
2010,08,16,13,58,28.90
2010,08,16,13,59,28.90
2010,08,16,14,00,28.90
2010,08,16,14,01,28.90
2010,08,16,14,02,28.90
2010,08,16,14,03,28.90
2010,08,16,14,04,28.90
2010,08,16,14,05,28.90
2010,08,16,14,06,29.00
2010,08,16,14,07,29.10
2010,08,16,14,08,29.10
2010,08,16,14,09,29.10
2010,08,16,14,10,29.10
2010,08,16,14,11,29.20
2010,08,16,14,12,29.20
2010,08,16,14,13,29.10
2010,08,16,14,14,29.10
2010,08,16,14,15,29.00
2010,08,16,14,16,29.10
2010,08,16,14,17,29.10
2010,08,16,14,18,29.20
2010,08,16,14,19,29.30
2010,08,16,14,20,29.30
2010,08,16,14,21,29.40
2010,08,16,14,22,29.30
2010,08,16,14,23,29.40
2010,08,16,14,24,29.50
2010,08,16,14,25,29.60
2010,08,16,14,26,29.70
2010,08,16,14,27,29.70
2010,08,16,14,28,29.70
2010,08,16,14,29,29.70
2010,08,16,14,30,29.70
2010,08,16,14,31,29.80
2010,08,16,14,32,29.80
2010,08,16,14,33,29.80
2010,08,16,14,34,29.70
2010,08,16,14,35,29.70
2010,08,16,14,36,29.80
2010,08,16,14,37,29.80
2010,08,16,14,38,29.80
2010,08,16,14,39,29.90
2010,08,16,14,40,29.80
2010,08,16,14,41,29.80
2010,08,16,14,42,29.80
2010,08,16,14,43,29.70
2010,08,16,14,44,29.70
2010,08,16,14,45,29.70
2010,08,16,14,46,29.70
2010,08,16,14,47,29.70
2010,08,16,14,48,29.70
2010,08,16,14,49,29.70
2010,08,16,14,50,29.70
2010,08,16,14,51,29.70
2010,08,16,14,52,29.80
2010,08,16,14,53,29.80
2010,08,16,14,54,29.90
2010,08,16,14,55,29.90
2010,08,16,14,56,29.90
2010,08,16,14,57,30.00
2010,08,16,14,58,30.00
2010,08,16,14,59,30.00
2010,08,16,15,00,30.10
2010,08,16,15,01,30.20
2010,08,16,15,02,30.20
2010,08,16,15,03,30.20
2010,08,16,15,04,30.30
2010,08,16,15,05,30.30
2010,08,16,15,06,30.30
2010,08,16,15,07,30.20
2010,08,16,15,08,30.10
2010,08,16,15,09,29.90
2010,08,16,15,10,29.90
2010,08,16,15,11,29.90
2010,08,16,15,12,29.90
2010,08,16,15,13,29.90
2010,08,16,15,14,29.90
2010,08,16,15,15,29.90
2010,08,16,15,16,29.90
2010,08,16,15,17,29.90
2010,08,16,15,18,29.90
2010,08,16,15,19,29.90
2010,08,16,15,20,30.00
2010,08,16,15,21,30.10
2010,08,16,15,22,30.10
2010,08,16,15,23,30.10
2010,08,16,15,24,29.90
2010,08,16,15,25,29.90
2010,08,16,15,26,29.70
2010,08,16,15,27,29.70
2010,08,16,15,28,29.60
2010,08,16,15,29,29.60
2010,08,16,15,30,29.50
2010,08,16,15,31,29.40
2010,08,16,15,32,29.40
2010,08,16,15,33,29.40
2010,08,16,15,34,29.30
2010,08,16,15,35,29.30
2010,08,16,15,36,29.40
2010,08,16,15,37,29.40
2010,08,16,15,38,29.40
2010,08,16,15,39,29.40
2010,08,16,15,40,29.30
2010,08,16,15,41,29.30
2010,08,16,15,42,29.30
2010,08,16,15,43,29.30
2010,08,16,15,44,29.40
2010,08,16,15,45,29.40
2010,08,16,15,46,29.50
2010,08,16,15,47,29.50
2010,08,16,15,48,29.40
2010,08,16,15,49,29.40
2010,08,16,15,50,29.40
2010,08,16,15,51,29.40
2010,08,16,15,52,29.40
2010,08,16,15,53,29.40
2010,08,16,15,54,29.40
2010,08,16,15,55,29.50
2010,08,16,15,56,29.50
2010,08,16,15,57,29.50
2010,08,16,15,58,29.50
2010,08,16,15,59,29.60
2010,08,16,16,00,29.60
2010,08,16,16,01,29.60
2010,08,16,16,02,29.60
2010,08,16,16,03,29.50
2010,08,16,16,04,29.60
2010,08,16,16,05,29.70
2010,08,16,16,06,29.80
2010,08,16,16,07,29.90
2010,08,16,16,08,29.90
2010,08,16,16,09,29.90
2010,08,16,16,10,29.80
2010,08,16,16,11,29.80
2010,08,16,16,12,29.80
2010,08,16,16,13,29.80
2010,08,16,16,14,29.80
2010,08,16,16,15,29.80
2010,08,16,16,16,29.80
2010,08,16,16,17,29.70
2010,08,16,16,18,29.70
2010,08,16,16,19,29.70
2010,08,16,16,20,29.70
2010,08,16,16,21,29.70
2010,08,16,16,22,29.60
2010,08,16,16,23,29.50
2010,08,16,16,24,29.50
2010,08,16,16,25,29.50
2010,08,16,16,26,29.50
2010,08,16,16,27,29.50
2010,08,16,16,28,29.40
2010,08,16,16,29,29.30
2010,08,16,16,30,29.30
2010,08,16,16,31,29.30
2010,08,16,16,32,29.30
2010,08,16,16,33,29.30
2010,08,16,16,34,29.30
2010,08,16,16,35,29.30
2010,08,16,16,36,29.40
2010,08,16,16,37,29.40
2010,08,16,16,38,29.40
2010,08,16,16,39,29.50
2010,08,16,16,40,29.50
2010,08,16,16,41,29.50
2010,08,16,16,42,29.50
2010,08,16,16,43,29.50
2010,08,16,16,44,29.60
2010,08,16,16,45,29.60
2010,08,16,16,46,29.60
2010,08,16,16,47,29.60
2010,08,16,16,48,29.50
2010,08,16,16,49,29.50
2010,08,16,16,50,29.50
2010,08,16,16,51,29.40
2010,08,16,16,52,29.40
2010,08,16,16,53,29.30
2010,08,16,16,54,29.20
2010,08,16,16,55,29.10
2010,08,16,16,56,29.00
2010,08,16,16,57,28.90
2010,08,16,16,58,28.70
2010,08,16,16,59,28.60
2010,08,16,17,00,28.60
2010,08,16,17,01,28.50
2010,08,16,17,02,28.40
2010,08,16,17,03,28.40
2010,08,16,17,04,28.30
2010,08,16,17,05,28.20
2010,08,16,17,06,28.10
2010,08,16,17,07,27.90
2010,08,16,17,08,27.80
2010,08,16,17,09,27.70
2010,08,16,17,10,27.60
2010,08,16,17,11,27.60
2010,08,16,17,12,27.40
2010,08,16,17,13,27.30
2010,08,16,17,14,27.30
2010,08,16,17,15,27.20
2010,08,16,17,16,27.20
2010,08,16,17,17,27.10
2010,08,16,17,18,27.10
2010,08,16,17,19,27.00